EW5412 Weather Reports


time (UTC)temp
F
wind
direction
speed
knots
gust
knots
rain 1hr
in
rain 24hr
in
rain mn
in
humidity
%
barometer
mb
20260504214527 74 340 12.2 25.2 0.00 0.00 0.00 48 1001.0
20260504213045 76 292 12.2 28.7 0.00 0.00 0.00 46 1000.8
20260504211526 75 300 15.6 25.2 0.00 0.00 0.00 46 1000.9
20260504210027 75 319 13.9 29.5 0.00 0.00 0.00 47 1000.6
20260504204524 75 285 13.0 30.4 0.00 0.00 0.00 45 1000.6
20260504203023 76 289 12.2 26.1 0.00 0.00 0.00 46 1000.7
20260504201526 76 352 13.0 25.2 0.00 0.00 0.00 45 1000.9
20260504200020 75 299 9.6 23.5 0.00 0.00 0.00 49 1001.0
20260504194519 76 290 12.2 25.2 0.00 0.00 0.00 49 1001.0
20260504193017 75 280 13.9 22.6 0.00 0.00 0.00 48 1001.1
20260504191515 75 288 14.8 25.2 0.00 0.00 0.00 48 1001.2
20260504190012 75 311 10.4 21.7 0.00 0.00 0.00 50 1001.5
20260504184514 74 332 12.2 22.6 0.00 0.00 0.00 50 1001.7
20260504183007 73 270 13.0 24.3 0.00 0.00 0.00 52 1001.8
20260504181506 73 302 13.0 21.7 0.00 0.00 0.00 52 1002.0
20260504180006 73 271 8.7 22.6 0.00 0.00 0.00 54 1002.1
20260504174617 73 296 8.7 17.4 0.00 0.00 0.00 55 1002.3
20260504173059 71 304 9.6 18.2 0.00 0.00 0.00 57 1002.5
20260504171555 70 308 10.4 18.2 0.00 0.00 0.00 57 1002.8
20260504081522 51 270 5.2 8.7 0.00 0.00 0.00 75 1006.1
20260504060104 51 288 5.2 9.6 0.00 0.00 0.00 77 1007.8
20260504044600 50 277 1.7 6.1 0.00 0.00 0.00 78 1008.6
20260504043049 50 280 2.6 5.2 0.00 0.00 0.00 79 1008.6
20260504041547 50 233 2.6 7.0 0.00 0.00 0.00 79 1008.4
20260504040044 50 256 3.5 6.1 0.00 0.00 0.00 79 1008.6
20260504034551 50 252 2.6 7.0 0.00 0.00 0.00 80 1008.9
20260504033052 50 257 2.6 6.1 0.00 0.00 0.00 81 1008.9
20260504031541 50 249 4.3 7.0 0.00 0.00 0.00 81 1009.0
20260504030039 49 257 4.3 7.8 0.00 0.00 0.00 82 1009.1
20260504024544 49 243 2.6 5.2 0.00 0.00 0.00 84 1009.2
20260504023038 49 256 1.7 4.3 0.00 0.00 0.00 84 1009.2
20260504021538 49 262 0.9 6.1 0.00 0.00 0.00 84 1009.3
20260504020041 49 257 1.7 5.2 0.00 0.00 0.00 83 1009.2
20260504014539 50 207 1.7 5.2 0.00 0.00 0.00 82 1009.2
20260504013039 50 271 2.6 7.8 0.00 0.00 0.00 82 1009.2
20260504011534 50 252 3.5 7.0 0.00 0.00 0.00 81 1009.2
20260504010046 51 263 5.2 8.7 0.00 0.00 0.00 81 1009.2
20260504004534 51 256 4.3 7.8 0.00 0.00 0.00 80 1009.3
20260504003033 51 229 2.6 7.0 0.00 0.00 0.00 80 1009.3
20260504001532 52 229 3.5 7.8 0.00 0.00 0.00 79 1009.5
20260504000029 52 252 3.5 7.8 0.00 0.00 0.00 80 1009.7
20260503234530 52 256 4.3 10.4 0.00 0.00 0.00 80 1009.7
20260503233026 51 195 4.3 9.6 0.00 0.00 0.00 80 1009.9
20260503231526 52 256 7.0 10.4 0.00 0.00 0.00 78 1010.1
20260503230023 52 257 5.2 10.4 0.00 0.00 0.00 79 1010.3
20260503224522 51 254 3.5 9.6 0.00 0.00 0.00 81 1010.5
20260503223019 51 217 4.3 10.4 0.00 0.00 0.00 81 1010.8
20260503221528 50 250 3.5 8.7 0.00 0.00 0.00 83 1010.9
20260503220019 49 198 5.2 11.3 0.00 0.00 0.00 84 1010.9